N314RS KLIT-MMBT

Flight info

Callsign N314RS
Flight time 2h 53m
Altitude 43000
Route LITTR Q33 IAH J29 PSX J177 IPRUL/N0481F450 UT151 VER UJ70 NUDOS
Aircraft C750/M-SBDE3FGHRWXY/S

Departure

Time 2026-04-29 15:24
Airport Bill & Hillary Clinton National Airport/Adams Field (KLIT)

Arrival

Time 2026-04-29 18:17
Airport Bahías de Huatulco International Airport (MMBT)
Time Latitude Longitude Altitude Speed Heading
2026-04-29 15:07 34.72524 -92.22559 254 ft 0 kts 109°
2026-04-29 15:10 34.72524 -92.22561 264 ft 0 kts 109°
2026-04-29 15:10 34.72528 -92.22576 264 ft 2 kts 116°
2026-04-29 15:10 34.72537 -92.22589 264 ft 2 kts 152°
2026-04-29 15:10 34.72551 -92.22593 264 ft 2 kts 205°
2026-04-29 15:11 34.72560 -92.22580 264 ft 2 kts 271°
2026-04-29 15:11 34.72560 -92.22576 264 ft 0 kts 272°
2026-04-29 15:13 34.72561 -92.22581 264 ft 1 kts 274°
2026-04-29 15:13 34.72565 -92.22607 264 ft 5 kts 288°
2026-04-29 15:13 34.72584 -92.22652 264 ft 8 kts 304°
2026-04-29 15:14 34.72628 -92.22713 263 ft 12 kts 312°
2026-04-29 15:14 34.72692 -92.22787 262 ft 13 kts 317°
2026-04-29 15:14 34.72756 -92.22860 262 ft 13 kts 317°
2026-04-29 15:14 34.72833 -92.22868 261 ft 13 kts 44°
2026-04-29 15:15 34.72896 -92.22788 260 ft 14 kts 47°
2026-04-29 15:15 34.72962 -92.22703 262 ft 13 kts 47°
2026-04-29 15:15 34.73024 -92.22624 264 ft 13 kts 45°
2026-04-29 15:15 34.73087 -92.22544 264 ft 13 kts 47°
2026-04-29 15:16 34.73151 -92.22462 266 ft 13 kts 46°
2026-04-29 15:16 34.73211 -92.22385 268 ft 13 kts 46°
2026-04-29 15:16 34.73274 -92.22304 267 ft 14 kts 46°
2026-04-29 15:16 34.73282 -92.22193 267 ft 15 kts 111°
2026-04-29 15:17 34.73242 -92.22071 267 ft 16 kts 112°
2026-04-29 15:17 34.73200 -92.21942 267 ft 17 kts 111°
2026-04-29 15:17 34.73154 -92.21814 266 ft 15 kts 127°
2026-04-29 15:17 34.73114 -92.21778 265 ft 6 kts 159°
2026-04-29 15:18 34.73085 -92.21736 265 ft 3 kts 131°
2026-04-29 15:18 34.73069 -92.21751 265 ft 6 kts 237°
2026-04-29 15:18 34.73024 -92.21813 265 ft 13 kts 220°
2026-04-29 15:18 34.72950 -92.21868 264 ft 12 kts 201°
2026-04-29 15:19 34.72883 -92.21876 265 ft 10 kts 172°
2026-04-29 15:19 34.72812 -92.21842 268 ft 11 kts 166°
2026-04-29 15:19 34.72735 -92.21845 267 ft 11 kts 200°
2026-04-29 15:19 34.72664 -92.21873 263 ft 11 kts 191°
2026-04-29 15:20 34.72599 -92.21888 261 ft 9 kts 189°
2026-04-29 15:20 34.72549 -92.21890 261 ft 6 kts 159°
2026-04-29 15:20 34.72516 -92.21871 261 ft 5 kts 157°
2026-04-29 15:20 34.72479 -92.21853 262 ft 6 kts 156°
2026-04-29 15:21 34.72443 -92.21837 263 ft 6 kts 161°
2026-04-29 15:21 34.72394 -92.21823 264 ft 7 kts 173°
2026-04-29 15:21 34.72330 -92.21850 264 ft 14 kts 208°
2026-04-29 15:21 34.72235 -92.21943 261 ft 19 kts 221°
2026-04-29 15:22 34.72147 -92.22053 263 ft 17 kts 226°
2026-04-29 15:22 34.72072 -92.22150 263 ft 13 kts 226°
2026-04-29 15:22 34.72019 -92.22184 263 ft 8 kts 175°
2026-04-29 15:22 34.71980 -92.22153 263 ft 6 kts 136°
2026-04-29 15:23 34.71953 -92.22117 263 ft 5 kts 118°
2026-04-29 15:23 34.71965 -92.22086 263 ft 5 kts 48°
2026-04-29 15:23 34.72127 -92.21881 262 ft 83 kts 46°
2026-04-29 15:23 34.72718 -92.21135 309 ft 146 kts 44°
2026-04-29 15:24 34.73403 -92.20242 939 ft 146 kts 45°
2026-04-29 15:24 34.74068 -92.19282 1618 ft 152 kts 48°
2026-04-29 15:24 34.74811 -92.18296 2103 ft 165 kts 46°
2026-04-29 15:24 34.75462 -92.17156 2794 ft 167 kts 68°
2026-04-29 15:25 34.75587 -92.15663 3213 ft 197 kts 94°
2026-04-29 15:25 34.74984 -92.14046 3516 ft 234 kts 127°
2026-04-29 15:25 34.73498 -92.12973 3711 ft 271 kts 164°
2026-04-29 15:25 34.71605 -92.13215 4394 ft 279 kts 204°
2026-04-29 15:26 34.70121 -92.14674 5214 ft 276 kts 231°
2026-04-29 15:26 34.68957 -92.16520 6079 ft 275 kts 234°
2026-04-29 15:26 34.67473 -92.17974 6928 ft 281 kts 205°
2026-04-29 15:26 34.65569 -92.18488 7959 ft 280 kts 191°
2026-04-29 15:27 34.63631 -92.18822 8954 ft 283 kts 192°
2026-04-29 15:27 34.61672 -92.19183 9874 ft 286 kts 193°
2026-04-29 15:27 34.59701 -92.19570 10436 ft 300 kts 194°
2026-04-29 15:27 34.57556 -92.19987 10793 ft 318 kts 193°
2026-04-29 15:28 34.55370 -92.20388 11627 ft 319 kts 194°
2026-04-29 15:28 34.53881 -92.20664 12098 ft 323 kts 194°
2026-04-29 15:28 34.50917 -92.21232 13054 ft 328 kts 195°
2026-04-29 15:28 34.48646 -92.21663 13775 ft 333 kts 195°
2026-04-29 15:29 34.46346 -92.22095 14445 ft 336 kts 195°
2026-04-29 15:29 34.41713 -92.22968 15910 ft 338 kts 195°
2026-04-29 15:30 34.37079 -92.23843 17406 ft 341 kts 195°
2026-04-29 15:30 34.34725 -92.24286 18178 ft 343 kts 195°
2026-04-29 15:30 34.32360 -92.24732 18777 ft 346 kts 196°
2026-04-29 15:30 34.29969 -92.25183 19292 ft 349 kts 196°
2026-04-29 15:31 34.27561 -92.25636 19834 ft 352 kts 196°
2026-04-29 15:31 34.25134 -92.26091 20387 ft 354 kts 196°
2026-04-29 15:31 34.22690 -92.26551 20948 ft 357 kts 196°
2026-04-29 15:31 34.20230 -92.27014 21493 ft 360 kts 197°
2026-04-29 15:32 34.17781 -92.27473 22044 ft 362 kts 197°
2026-04-29 15:32 34.15284 -92.27939 22599 ft 365 kts 197°
2026-04-29 15:32 34.12764 -92.28410 23159 ft 367 kts 197°
2026-04-29 15:32 34.10230 -92.28884 23694 ft 370 kts 197°
2026-04-29 15:33 34.07674 -92.29361 24156 ft 373 kts 197°
2026-04-29 15:33 34.05101 -92.29841 24610 ft 375 kts 197°
2026-04-29 15:33 34.02515 -92.30323 25061 ft 378 kts 197°
2026-04-29 15:33 33.99906 -92.30810 25507 ft 381 kts 197°
2026-04-29 15:34 33.97279 -92.31300 25946 ft 383 kts 197°
2026-04-29 15:34 33.94670 -92.31785 26391 ft 386 kts 197°
2026-04-29 15:34 33.92010 -92.32280 26819 ft 388 kts 197°
2026-04-29 15:34 33.89332 -92.32778 27255 ft 391 kts 198°
2026-04-29 15:35 33.86629 -92.33280 27684 ft 394 kts 198°
2026-04-29 15:35 33.83910 -92.33785 28130 ft 397 kts 198°
2026-04-29 15:35 33.81173 -92.34293 28558 ft 400 kts 198°
2026-04-29 15:35 33.78415 -92.34805 28967 ft 403 kts 198°
2026-04-29 15:36 33.75674 -92.35313 29378 ft 405 kts 198°
2026-04-29 15:36 33.72877 -92.35831 29778 ft 408 kts 198°
2026-04-29 15:36 33.70057 -92.36353 30186 ft 411 kts 198°
2026-04-29 15:36 33.67222 -92.36877 30516 ft 414 kts 198°
2026-04-29 15:37 33.64369 -92.37404 30861 ft 416 kts 198°
2026-04-29 15:37 33.61500 -92.37934 31179 ft 419 kts 198°
2026-04-29 15:37 33.58610 -92.38468 31512 ft 421 kts 198°
2026-04-29 15:37 33.55703 -92.39004 31879 ft 424 kts 198°
2026-04-29 15:38 33.52783 -92.39542 32338 ft 426 kts 198°
2026-04-29 15:38 33.49878 -92.40078 32747 ft 430 kts 198°
2026-04-29 15:38 33.46913 -92.40624 33163 ft 433 kts 198°
2026-04-29 15:38 33.43927 -92.41173 33574 ft 436 kts 198°
2026-04-29 15:39 33.40917 -92.41726 33989 ft 439 kts 198°
2026-04-29 15:39 33.37888 -92.42283 34341 ft 442 kts 198°
2026-04-29 15:39 33.34839 -92.42841 34752 ft 443 kts 198°
2026-04-29 15:39 33.31794 -92.43397 35242 ft 443 kts 199°
2026-04-29 15:40 33.28742 -92.43958 35674 ft 444 kts 199°
2026-04-29 15:40 33.25729 -92.44513 36119 ft 445 kts 199°
2026-04-29 15:40 33.22659 -92.45075 36574 ft 446 kts 199°
2026-04-29 15:40 33.19597 -92.45633 37039 ft 446 kts 199°
2026-04-29 15:41 33.16522 -92.46195 37511 ft 447 kts 200°
2026-04-29 15:41 33.13450 -92.46758 37991 ft 447 kts 200°
2026-04-29 15:41 33.10376 -92.47319 38488 ft 447 kts 200°
2026-04-29 15:41 33.07300 -92.47880 38921 ft 447 kts 200°
2026-04-29 15:42 33.04230 -92.48439 39358 ft 446 kts 200°
2026-04-29 15:42 33.01207 -92.48989 39821 ft 445 kts 200°
2026-04-29 15:42 32.98155 -92.49545 40292 ft 443 kts 200°
2026-04-29 15:42 32.95112 -92.50099 40743 ft 442 kts 200°
2026-04-29 15:43 32.92078 -92.50651 41202 ft 440 kts 200°
2026-04-29 15:43 32.89054 -92.51200 41658 ft 439 kts 200°
2026-04-29 15:43 32.86043 -92.51747 42093 ft 437 kts 200°
2026-04-29 15:43 32.83042 -92.52292 42533 ft 436 kts 200°
2026-04-29 15:44 32.80054 -92.52833 42947 ft 433 kts 200°
2026-04-29 15:44 32.74042 -92.53935 43001 ft 448 kts 199°
2026-04-29 15:45 32.67764 -92.55064 43017 ft 463 kts 199°
2026-04-29 15:45 32.61293 -92.56237 43021 ft 477 kts 199°
2026-04-29 15:46 32.54684 -92.57425 43013 ft 482 kts 199°
2026-04-29 15:46 32.48108 -92.58612 43006 ft 481 kts 199°
2026-04-29 15:47 32.41489 -92.59806 42998 ft 482 kts 199°
2026-04-29 15:47 32.34858 -92.60998 42998 ft 482 kts 199°
2026-04-29 15:48 32.28222 -92.62192 43001 ft 483 kts 199°
2026-04-29 15:48 32.22696 -92.63182 42995 ft 483 kts 199°
2026-04-29 15:49 32.14968 -92.64568 42994 ft 484 kts 198°
2026-04-29 15:49 32.08307 -92.65758 42994 ft 485 kts 198°
2026-04-29 15:50 32.02809 -92.66889 42976 ft 476 kts 204°
2026-04-29 15:50 31.96797 -92.69716 42989 ft 456 kts 218°
2026-04-29 15:51 31.91763 -92.74007 42989 ft 440 kts 231°
2026-04-29 15:51 31.87365 -92.78991 43013 ft 440 kts 232°
2026-04-29 15:52 31.82943 -92.83966 43007 ft 439 kts 232°
2026-04-29 15:52 31.78566 -92.88918 43002 ft 440 kts 232°
2026-04-29 15:53 31.74141 -92.93896 42997 ft 441 kts 232°
2026-04-29 15:53 31.69705 -92.98889 42999 ft 442 kts 232°
2026-04-29 15:54 31.65287 -93.03851 43000 ft 443 kts 232°
2026-04-29 15:54 31.60831 -93.08852 42998 ft 444 kts 232°
2026-04-29 15:55 31.56355 -93.13866 42998 ft 445 kts 232°
2026-04-29 15:55 31.51867 -93.18887 42996 ft 446 kts 232°
2026-04-29 15:56 31.47369 -93.23912 42998 ft 447 kts 232°
2026-04-29 15:56 31.42889 -93.28910 42991 ft 448 kts 232°
2026-04-29 15:57 31.38364 -93.33951 42986 ft 449 kts 232°
2026-04-29 15:57 31.33833 -93.38994 42992 ft 452 kts 232°
2026-04-29 15:58 31.29281 -93.44045 42983 ft 450 kts 232°
2026-04-29 15:58 31.24767 -93.49059 42980 ft 451 kts 232°
2026-04-29 15:59 31.20200 -93.54116 42976 ft 452 kts 232°
2026-04-29 15:59 31.15636 -93.59166 42969 ft 452 kts 232°
2026-04-29 16:00 31.11063 -93.64218 42973 ft 453 kts 232°
2026-04-29 16:00 31.06486 -93.69268 42968 ft 453 kts 232°
2026-04-29 16:01 31.01934 -93.74283 42979 ft 454 kts 232°
2026-04-29 16:01 30.97345 -93.79331 42984 ft 454 kts 232°
2026-04-29 16:02 30.92754 -93.84375 42994 ft 454 kts 232°
2026-04-29 16:02 30.88157 -93.89419 43005 ft 454 kts 232°
2026-04-29 16:03 30.83589 -93.94423 43015 ft 454 kts 232°
2026-04-29 16:03 30.78994 -93.99451 43008 ft 454 kts 232°
2026-04-29 16:04 30.74391 -94.04480 43002 ft 453 kts 231°
2026-04-29 16:04 30.69791 -94.09500 42991 ft 454 kts 231°
2026-04-29 16:05 30.65215 -94.14486 42975 ft 454 kts 231°
2026-04-29 16:05 30.60610 -94.19497 42969 ft 454 kts 231°
2026-04-29 16:06 30.56005 -94.24501 42958 ft 454 kts 231°
2026-04-29 16:06 30.51393 -94.29506 42957 ft 454 kts 231°
2026-04-29 16:07 30.46785 -94.34499 42960 ft 453 kts 231°
2026-04-29 16:07 30.42176 -94.39487 42958 ft 453 kts 231°
2026-04-29 16:08 30.37599 -94.44433 42954 ft 453 kts 231°
2026-04-29 16:08 30.32996 -94.49402 42955 ft 453 kts 231°
2026-04-29 16:09 30.28385 -94.54372 42954 ft 453 kts 231°
2026-04-29 16:09 30.23776 -94.59333 42955 ft 453 kts 231°
2026-04-29 16:10 30.19669 -94.64700 42955 ft 440 kts 242°
2026-04-29 16:10 30.16895 -94.70820 42956 ft 429 kts 254°
2026-04-29 16:11 30.14779 -94.77262 42972 ft 430 kts 254°
2026-04-29 16:11 30.12642 -94.83698 42977 ft 428 kts 254°
2026-04-29 16:12 30.10519 -94.90129 42969 ft 429 kts 254°
2026-04-29 16:12 30.08386 -94.96549 42961 ft 428 kts 254°
2026-04-29 16:13 30.06271 -95.02920 42972 ft 428 kts 254°
2026-04-29 16:13 30.04134 -95.09333 42979 ft 428 kts 254°
2026-04-29 16:14 30.01997 -95.15740 42988 ft 428 kts 253°
2026-04-29 16:14 29.99854 -95.22151 42998 ft 428 kts 253°
2026-04-29 16:15 29.97646 -95.28532 42983 ft 431 kts 250°
2026-04-29 16:15 29.94387 -95.34410 42996 ft 442 kts 237°
2026-04-29 16:16 29.89890 -95.39311 42995 ft 456 kts 224°
2026-04-29 16:16 29.84695 -95.43537 42995 ft 458 kts 223°
2026-04-29 16:17 29.79508 -95.47778 42986 ft 457 kts 223°
2026-04-29 16:17 29.74311 -95.51996 42997 ft 457 kts 223°
2026-04-29 16:18 29.69112 -95.56225 42997 ft 457 kts 223°
2026-04-29 16:18 29.63951 -95.60409 42990 ft 456 kts 223°
2026-04-29 16:19 29.58763 -95.64617 42999 ft 457 kts 223°
2026-04-29 16:19 29.53556 -95.68828 42994 ft 457 kts 223°
2026-04-29 16:20 29.48397 -95.73000 42981 ft 457 kts 223°
2026-04-29 16:20 29.43198 -95.77196 42971 ft 457 kts 223°
2026-04-29 16:21 29.37994 -95.81392 42960 ft 457 kts 223°
2026-04-29 16:21 29.32834 -95.85538 43929 ft 437 kts 223°
2026-04-29 16:21 29.30388 -95.87493 44866 ft 422 kts 223°
2026-04-29 16:22 29.27988 -95.89439 44947 ft 427 kts 223°
2026-04-29 16:22 29.23060 -95.93414 44975 ft 440 kts 222°
2026-04-29 16:23 29.18009 -95.97454 44995 ft 451 kts 222°
2026-04-29 16:23 29.12833 -96.01606 44992 ft 456 kts 222°
2026-04-29 16:24 29.07645 -96.05752 44986 ft 454 kts 222°
2026-04-29 16:24 29.02462 -96.09899 44961 ft 455 kts 222°
2026-04-29 16:25 28.97272 -96.14039 44951 ft 455 kts 222°
2026-04-29 16:25 28.92078 -96.18182 44958 ft 456 kts 222°
2026-04-29 16:26 28.86909 -96.22298 44974 ft 456 kts 222°
2026-04-29 16:26 28.81705 -96.26437 44979 ft 456 kts 222°
2026-04-29 16:27 28.76211 -96.30172 44980 ft 468 kts 211°
2026-04-29 16:27 28.69871 -96.32312 44995 ft 481 kts 200°
2026-04-29 16:28 28.63379 -96.33978 44987 ft 481 kts 200°
2026-04-29 16:28 28.56849 -96.35660 44982 ft 482 kts 200°
2026-04-29 16:29 28.50312 -96.37333 44971 ft 481 kts 200°
2026-04-29 16:29 28.43782 -96.39009 44953 ft 481 kts 200°
2026-04-29 16:30 28.37292 -96.40669 44942 ft 481 kts 200°
2026-04-29 16:30 28.30761 -96.42339 44947 ft 481 kts 200°
2026-04-29 16:31 28.24227 -96.44006 44943 ft 481 kts 200°
2026-04-29 16:31 28.17699 -96.45671 44947 ft 481 kts 200°
2026-04-29 16:32 28.11168 -96.47334 44945 ft 481 kts 199°
2026-04-29 16:32 28.04679 -96.48984 44946 ft 481 kts 199°
2026-04-29 16:33 27.94888 -96.51470 44946 ft 481 kts 199°
2026-04-29 16:33 27.88370 -96.53122 44951 ft 478 kts 199°
2026-04-29 16:34 27.81888 -96.54765 44946 ft 478 kts 199°
2026-04-29 16:34 27.75435 -96.56396 44938 ft 478 kts 199°
2026-04-29 16:35 27.68943 -96.58036 44940 ft 478 kts 199°
2026-04-29 16:35 27.62449 -96.59675 44939 ft 478 kts 199°
2026-04-29 16:36 27.55955 -96.61311 44944 ft 478 kts 199°
2026-04-29 16:36 27.49501 -96.62936 44941 ft 478 kts 199°
2026-04-29 16:37 27.43011 -96.64567 44935 ft 478 kts 199°
2026-04-29 16:37 27.37611 -96.65923 44937 ft 478 kts 199°
2026-04-29 16:38 27.30020 -96.67827 44932 ft 478 kts 198°
2026-04-29 16:38 27.23525 -96.69454 44931 ft 478 kts 198°
2026-04-29 16:39 27.17072 -96.71068 44932 ft 478 kts 198°
2026-04-29 16:39 27.10579 -96.72690 44931 ft 478 kts 198°
2026-04-29 16:40 27.04081 -96.74312 44930 ft 478 kts 198°
2026-04-29 16:40 26.97587 -96.75931 44926 ft 478 kts 198°
2026-04-29 16:41 26.91136 -96.77537 44929 ft 478 kts 198°
2026-04-29 16:41 26.84642 -96.79153 44924 ft 478 kts 198°
2026-04-29 16:42 26.78144 -96.80767 44926 ft 478 kts 198°
2026-04-29 16:42 26.71652 -96.82378 44924 ft 478 kts 198°
2026-04-29 16:43 26.65207 -96.83975 44924 ft 478 kts 198°
2026-04-29 16:43 26.58714 -96.85582 44924 ft 478 kts 198°
2026-04-29 16:44 26.52220 -96.87188 44926 ft 478 kts 198°
2026-04-29 16:44 26.45728 -96.88791 44923 ft 478 kts 197°
2026-04-29 16:45 26.39234 -96.90393 44915 ft 478 kts 197°
2026-04-29 16:45 26.32787 -96.91982 44919 ft 478 kts 197°
2026-04-29 16:46 26.26298 -96.93579 44917 ft 478 kts 197°
2026-04-29 16:46 26.19804 -96.95175 44918 ft 478 kts 197°
2026-04-29 16:47 26.13356 -96.96759 44920 ft 478 kts 197°
2026-04-29 16:47 26.06864 -96.98351 44919 ft 478 kts 197°
2026-04-29 16:48 26.00368 -96.99942 44917 ft 478 kts 197°
2026-04-29 16:48 25.93845 -97.01397 44923 ft 478 kts 196°
2026-04-29 16:49 25.87326 -97.02874 44920 ft 478 kts 195°
2026-04-29 16:49 25.80836 -97.04310 44921 ft 478 kts 195°
2026-04-29 16:50 25.74316 -97.05772 44922 ft 478 kts 195°
2026-04-29 16:50 25.67788 -97.07222 44922 ft 478 kts 195°
2026-04-29 16:51 25.61264 -97.08676 44923 ft 478 kts 195°
2026-04-29 16:51 25.54784 -97.10115 44919 ft 478 kts 195°
2026-04-29 16:52 25.48289 -97.11660 44926 ft 477 kts 197°
2026-04-29 16:52 25.41795 -97.13235 44918 ft 478 kts 196°
2026-04-29 16:53 25.35298 -97.14774 44918 ft 477 kts 196°
2026-04-29 16:53 25.28852 -97.16329 44926 ft 477 kts 196°
2026-04-29 16:54 25.22354 -97.17872 44929 ft 477 kts 196°
2026-04-29 16:54 25.15860 -97.19427 44925 ft 478 kts 196°
2026-04-29 16:55 25.09362 -97.20973 44920 ft 478 kts 195°
2026-04-29 16:55 25.02867 -97.22521 44914 ft 478 kts 195°
2026-04-29 16:56 24.96411 -97.24056 44915 ft 478 kts 195°
2026-04-29 16:56 24.89915 -97.25600 44916 ft 478 kts 195°
2026-04-29 16:57 24.83418 -97.27142 44862 ft 477 kts 196°
2026-04-29 16:57 24.76896 -97.28690 44921 ft 483 kts 196°
2026-04-29 16:58 24.70372 -97.30231 44921 ft 482 kts 196°
2026-04-29 16:58 24.63824 -97.31783 44921 ft 482 kts 196°
2026-04-29 16:59 24.57269 -97.33331 44912 ft 482 kts 196°
2026-04-29 16:59 24.50585 -97.34161 44906 ft 490 kts 182°
2026-04-29 17:00 24.43834 -97.33195 44933 ft 494 kts 174°
2026-04-29 17:00 24.37034 -97.32222 44928 ft 492 kts 178°
2026-04-29 17:01 24.30240 -97.31278 44929 ft 493 kts 175°
2026-04-29 17:01 24.23450 -97.30285 44924 ft 492 kts 176°
2026-04-29 17:02 24.16705 -97.29352 44922 ft 492 kts 176°
2026-04-29 17:02 24.09928 -97.28371 44927 ft 491 kts 176°
2026-04-29 17:03 24.03153 -97.27424 44929 ft 491 kts 176°
2026-04-29 17:03 23.96380 -97.26457 44929 ft 491 kts 176°
2026-04-29 17:04 23.89610 -97.25504 44925 ft 490 kts 176°
2026-04-29 17:04 23.82889 -97.24552 44927 ft 490 kts 176°
2026-04-29 17:05 23.76118 -97.23598 44931 ft 490 kts 176°
2026-04-29 17:05 23.69361 -97.22644 44928 ft 489 kts 176°
2026-04-29 17:06 23.62606 -97.21693 44928 ft 489 kts 176°
2026-04-29 17:06 23.55901 -97.20750 44929 ft 489 kts 176°
2026-04-29 17:07 23.49155 -97.19801 44927 ft 488 kts 176°
2026-04-29 17:07 23.42418 -97.18856 44935 ft 488 kts 176°
2026-04-29 17:08 23.35683 -97.17911 44932 ft 488 kts 176°
2026-04-29 17:08 23.28996 -97.16974 44929 ft 488 kts 176°
2026-04-29 17:09 23.22269 -97.16032 44931 ft 487 kts 176°
2026-04-29 17:09 23.15546 -97.15092 44932 ft 487 kts 175°
2026-04-29 17:10 23.08868 -97.13774 44945 ft 489 kts 170°
2026-04-29 17:10 23.02264 -97.12180 44954 ft 489 kts 171°
2026-04-29 17:11 22.95612 -97.10667 44949 ft 488 kts 171°
2026-04-29 17:11 22.88971 -97.09098 44947 ft 488 kts 171°
2026-04-29 17:12 22.82333 -97.07568 44944 ft 488 kts 171°
2026-04-29 17:12 22.76816 -97.06280 44947 ft 488 kts 170°
2026-04-29 17:13 22.69103 -97.04493 44942 ft 487 kts 171°
2026-04-29 17:13 22.62478 -97.02955 44945 ft 487 kts 170°
2026-04-29 17:14 22.55854 -97.01422 44938 ft 486 kts 170°
2026-04-29 17:14 22.49285 -96.99901 44935 ft 486 kts 170°
2026-04-29 17:15 22.42679 -96.98374 44936 ft 485 kts 170°
2026-04-29 17:15 22.36076 -96.96850 44929 ft 485 kts 170°
2026-04-29 17:16 22.29476 -96.95327 44934 ft 485 kts 170°
2026-04-29 17:16 22.22877 -96.93806 44927 ft 485 kts 170°
2026-04-29 17:17 22.16322 -96.92296 44928 ft 485 kts 170°
2026-04-29 17:17 22.09732 -96.90781 44932 ft 484 kts 170°
2026-04-29 17:18 22.03139 -96.89265 44931 ft 484 kts 170°
2026-04-29 17:18 21.96549 -96.87752 44930 ft 484 kts 170°
2026-04-29 17:19 21.90003 -96.86251 44925 ft 484 kts 170°
2026-04-29 17:19 21.83410 -96.84740 44927 ft 484 kts 170°
2026-04-29 17:20 21.76815 -96.83230 44930 ft 485 kts 170°
2026-04-29 17:20 21.70209 -96.81718 44927 ft 485 kts 170°
2026-04-29 17:21 21.63632 -96.80077 44925 ft 486 kts 169°
2026-04-29 17:21 21.57093 -96.78467 44926 ft 485 kts 168°
2026-04-29 17:22 21.50518 -96.76799 44923 ft 485 kts 168°
2026-04-29 17:22 21.43936 -96.75161 44922 ft 486 kts 168°
2026-04-29 17:23 21.37357 -96.73508 44917 ft 486 kts 168°
2026-04-29 17:23 21.30776 -96.71866 44918 ft 486 kts 168°
2026-04-29 17:24 21.24235 -96.70230 44911 ft 486 kts 168°
2026-04-29 17:24 21.17659 -96.68589 44913 ft 485 kts 168°
2026-04-29 17:25 21.11078 -96.66947 44906 ft 486 kts 168°
2026-04-29 17:25 21.04491 -96.65306 44915 ft 486 kts 168°
2026-04-29 17:26 20.97944 -96.63676 44909 ft 487 kts 168°
2026-04-29 17:26 20.91350 -96.62037 44908 ft 487 kts 168°
2026-04-29 17:27 20.84756 -96.60398 44906 ft 486 kts 168°
2026-04-29 17:27 20.78157 -96.58760 44907 ft 487 kts 168°
2026-04-29 17:28 20.71601 -96.57144 44905 ft 487 kts 169°
2026-04-29 17:28 20.64999 -96.55527 44904 ft 487 kts 168°
2026-04-29 17:29 20.58396 -96.53905 44898 ft 487 kts 168°
2026-04-29 17:29 20.52904 -96.52561 44896 ft 487 kts 168°
2026-04-29 17:30 20.45181 -96.50669 44896 ft 487 kts 168°
2026-04-29 17:30 20.38616 -96.49063 44891 ft 487 kts 168°
2026-04-29 17:31 20.32005 -96.47447 44886 ft 487 kts 168°
2026-04-29 17:31 20.25393 -96.45832 44885 ft 488 kts 168°
2026-04-29 17:32 20.18775 -96.44217 44881 ft 488 kts 168°
2026-04-29 17:32 20.12203 -96.42615 44884 ft 488 kts 168°
2026-04-29 17:33 20.05578 -96.41002 44881 ft 489 kts 168°
2026-04-29 17:33 19.98949 -96.39388 44880 ft 489 kts 168°
2026-04-29 17:34 19.92318 -96.37776 44884 ft 489 kts 168°
2026-04-29 17:34 19.85682 -96.36164 44886 ft 489 kts 168°
2026-04-29 17:35 19.75764 -96.33757 44880 ft 490 kts 168°
2026-04-29 17:36 19.69113 -96.32144 44879 ft 490 kts 168°
2026-04-29 17:36 19.62472 -96.30536 44878 ft 490 kts 168°
2026-04-29 17:37 19.55821 -96.28926 44874 ft 490 kts 168°
2026-04-29 17:37 19.49217 -96.27329 44873 ft 490 kts 168°
2026-04-29 17:38 19.42555 -96.25720 44887 ft 491 kts 168°
2026-04-29 17:38 19.35893 -96.24111 44905 ft 491 kts 168°
2026-04-29 17:39 19.29225 -96.22503 44920 ft 492 kts 168°
2026-04-29 17:39 19.22597 -96.20906 44933 ft 492 kts 168°
2026-04-29 17:40 19.15916 -96.19311 44931 ft 492 kts 170°
2026-04-29 17:40 19.09116 -96.18920 44940 ft 489 kts 184°
2026-04-29 17:41 19.02313 -96.19274 44942 ft 490 kts 182°
2026-04-29 17:41 18.95536 -96.19303 44929 ft 491 kts 183°
2026-04-29 17:42 18.88707 -96.19545 44909 ft 491 kts 183°
2026-04-29 17:42 18.81869 -96.19656 44891 ft 492 kts 183°
2026-04-29 17:43 18.75026 -96.19843 44885 ft 492 kts 183°
2026-04-29 17:43 18.68171 -96.19984 44883 ft 493 kts 182°
2026-04-29 17:44 18.61353 -96.20129 44884 ft 493 kts 183°
2026-04-29 17:44 18.54492 -96.20277 44882 ft 494 kts 183°
2026-04-29 17:45 18.47621 -96.20420 44878 ft 494 kts 183°
2026-04-29 17:45 18.40744 -96.20568 44882 ft 494 kts 183°
2026-04-29 17:46 18.33911 -96.20711 44877 ft 495 kts 183°
2026-04-29 17:46 18.27030 -96.20858 44894 ft 495 kts 183°
2026-04-29 17:47 18.20134 -96.21003 44901 ft 495 kts 183°
2026-04-29 17:47 18.13243 -96.21149 44905 ft 496 kts 183°
2026-04-29 17:48 18.06390 -96.21294 44908 ft 496 kts 183°
2026-04-29 17:48 17.99488 -96.21439 44911 ft 496 kts 183°
2026-04-29 17:49 17.92581 -96.21586 44919 ft 497 kts 182°
2026-04-29 17:49 17.85668 -96.21731 44930 ft 497 kts 182°
2026-04-29 17:50 17.78787 -96.21875 44202 ft 489 kts 182°
2026-04-29 17:50 17.75417 -96.21946 43589 ft 480 kts 182°
2026-04-29 17:50 17.72154 -96.22015 42977 ft 472 kts 182°
2026-04-29 17:50 17.68892 -96.22084 42366 ft 466 kts 182°
2026-04-29 17:51 17.65659 -96.22152 41772 ft 464 kts 182°
2026-04-29 17:51 17.62434 -96.22220 41165 ft 465 kts 182°
2026-04-29 17:51 17.59177 -96.22289 40563 ft 471 kts 181°
2026-04-29 17:51 17.55877 -96.22358 39951 ft 478 kts 181°
2026-04-29 17:52 17.52532 -96.22428 39320 ft 482 kts 181°
2026-04-29 17:52 17.50310 -96.22475 38899 ft 484 kts 181°
2026-04-29 17:52 17.45840 -96.22569 38014 ft 485 kts 181°
2026-04-29 17:52 17.42458 -96.22640 37374 ft 487 kts 181°
2026-04-29 17:53 17.39057 -96.22711 36733 ft 490 kts 181°
2026-04-29 17:53 17.35633 -96.22784 36095 ft 494 kts 180°
2026-04-29 17:53 17.32191 -96.22859 35444 ft 497 kts 180°
2026-04-29 17:53 17.28725 -96.22934 34792 ft 500 kts 180°
2026-04-29 17:54 17.25233 -96.23008 34119 ft 504 kts 180°
2026-04-29 17:54 17.21723 -96.23082 33427 ft 506 kts 180°
2026-04-29 17:54 17.18206 -96.23158 32773 ft 507 kts 180°
2026-04-29 17:54 17.14667 -96.23235 32096 ft 510 kts 179°
2026-04-29 17:55 17.11163 -96.23310 31426 ft 511 kts 179°
2026-04-29 17:55 17.07596 -96.23385 30750 ft 514 kts 179°
2026-04-29 17:55 17.04017 -96.23462 30061 ft 513 kts 179°
2026-04-29 17:55 17.00479 -96.23540 29334 ft 505 kts 179°
2026-04-29 17:56 16.96988 -96.23615 28678 ft 499 kts 178°
2026-04-29 17:56 16.93539 -96.23687 28025 ft 493 kts 178°
2026-04-29 17:56 16.90132 -96.23759 27374 ft 487 kts 178°
2026-04-29 17:56 16.86760 -96.23832 26731 ft 483 kts 178°
2026-04-29 17:57 16.83465 -96.23902 26102 ft 477 kts 178°
2026-04-29 17:57 16.80169 -96.23973 25480 ft 471 kts 178°
2026-04-29 17:57 16.76903 -96.24042 24850 ft 466 kts 178°
2026-04-29 17:57 16.74726 -96.24089 24441 ft 463 kts 178°
2026-04-29 17:58 16.70490 -96.24178 23643 ft 456 kts 178°
2026-04-29 17:58 16.67337 -96.24245 22985 ft 449 kts 178°
2026-04-29 17:58 16.64234 -96.24312 22399 ft 445 kts 178°
2026-04-29 17:58 16.61149 -96.24377 21816 ft 441 kts 178°
2026-04-29 17:59 16.58098 -96.24442 21240 ft 437 kts 178°
2026-04-29 17:59 16.55111 -96.24506 20678 ft 433 kts 178°
2026-04-29 17:59 16.52117 -96.24570 20108 ft 428 kts 178°
2026-04-29 17:59 16.49151 -96.24632 19556 ft 424 kts 178°
2026-04-29 18:00 16.46217 -96.24694 19059 ft 421 kts 178°
2026-04-29 18:00 16.43301 -96.24757 18513 ft 418 kts 178°
2026-04-29 18:00 16.40412 -96.24819 17927 ft 412 kts 178°
2026-04-29 18:00 16.37557 -96.24879 17389 ft 409 kts 178°
2026-04-29 18:01 16.34725 -96.24938 16854 ft 406 kts 178°
2026-04-29 18:01 16.31908 -96.24997 16329 ft 402 kts 178°
2026-04-29 18:01 16.29127 -96.25059 15790 ft 400 kts 178°
2026-04-29 18:01 16.26387 -96.25116 15257 ft 397 kts 178°
2026-04-29 18:02 16.23653 -96.25171 14788 ft 396 kts 178°
2026-04-29 18:02 16.20902 -96.25230 14249 ft 393 kts 178°
2026-04-29 18:02 16.18178 -96.25292 13732 ft 390 kts 179°
2026-04-29 18:02 16.15484 -96.25349 13168 ft 383 kts 179°
2026-04-29 18:03 16.12829 -96.25402 12676 ft 381 kts 179°
2026-04-29 18:03 16.10184 -96.25457 12158 ft 380 kts 179°
2026-04-29 18:03 16.07547 -96.25513 11685 ft 377 kts 179°
2026-04-29 18:03 16.04981 -96.25572 11184 ft 358 kts 180°
2026-04-29 18:04 16.02590 -96.25623 10730 ft 339 kts 180°
2026-04-29 18:04 16.00282 -96.25669 10285 ft 325 kts 180°
2026-04-29 18:04 15.98057 -96.25714 9853 ft 315 kts 180°
2026-04-29 18:04 15.95898 -96.25761 9427 ft 306 kts 180°
2026-04-29 18:05 15.93782 -96.25806 9031 ft 303 kts 180°
2026-04-29 18:05 15.91677 -96.25850 8627 ft 302 kts 180°
2026-04-29 18:05 15.89585 -96.25894 8222 ft 300 kts 180°
2026-04-29 18:05 15.87505 -96.25938 7838 ft 298 kts 180°
2026-04-29 18:06 15.85444 -96.25982 7443 ft 294 kts 180°
2026-04-29 18:06 15.83462 -96.26024 7048 ft 284 kts 180°
2026-04-29 18:06 15.81520 -96.26065 6682 ft 275 kts 180°
2026-04-29 18:06 15.79630 -96.26116 6312 ft 268 kts 182°
2026-04-29 18:07 15.77882 -96.26641 5845 ft 261 kts 211°
2026-04-29 18:07 15.76644 -96.27880 5876 ft 238 kts 233°
2026-04-29 18:07 15.75696 -96.29320 6001 ft 246 kts 237°
2026-04-29 18:07 15.74739 -96.30798 6005 ft 247 kts 236°
2026-04-29 18:08 15.73771 -96.32278 6002 ft 248 kts 236°
2026-04-29 18:08 15.72800 -96.33759 6005 ft 248 kts 236°
2026-04-29 18:08 15.71843 -96.35221 5999 ft 248 kts 236°
2026-04-29 18:08 15.70876 -96.36702 5999 ft 248 kts 236°
2026-04-29 18:09 15.69905 -96.38185 5999 ft 248 kts 236°
2026-04-29 18:09 15.68935 -96.39668 5998 ft 248 kts 236°
2026-04-29 18:09 15.67963 -96.41153 5993 ft 248 kts 236°
2026-04-29 18:09 15.66993 -96.42635 5994 ft 248 kts 236°
2026-04-29 18:10 15.66056 -96.44144 5827 ft 246 kts 242°
2026-04-29 18:10 15.65754 -96.45241 5573 ft 234 kts 265°
2026-04-29 18:10 15.65983 -96.46824 5319 ft 214 kts 291°
2026-04-29 18:10 15.67137 -96.48327 5019 ft 197 kts 324°
2026-04-29 18:11 15.68379 -96.48878 4800 ft 196 kts 347°
2026-04-29 18:11 15.69737 -96.48855 4555 ft 197 kts 11°
2026-04-29 18:11 15.70971 -96.48254 4312 ft 198 kts 36°
2026-04-29 18:11 15.71862 -96.47171 4069 ft 199 kts 60°
2026-04-29 18:12 15.72188 -96.46287 3916 ft 198 kts 73°
2026-04-29 18:12 15.72555 -96.44910 3688 ft 198 kts 74°
2026-04-29 18:12 15.72937 -96.43536 3444 ft 198 kts 73°
2026-04-29 18:12 15.73319 -96.42163 3189 ft 198 kts 73°
2026-04-29 18:13 15.73696 -96.40795 2931 ft 197 kts 73°
2026-04-29 18:13 15.74199 -96.38990 2611 ft 194 kts 74°
2026-04-29 18:13 15.74550 -96.37741 2358 ft 167 kts 74°
2026-04-29 18:13 15.74753 -96.37011 2218 ft 152 kts 75°
2026-04-29 18:14 15.75040 -96.35986 2024 ft 143 kts 74°
2026-04-29 18:14 15.75306 -96.35033 2010 ft 137 kts 74°
2026-04-29 18:14 15.75581 -96.34038 1792 ft 145 kts 75°
2026-04-29 18:14 15.75854 -96.33052 1617 ft 140 kts 74°
2026-04-29 18:15 15.76122 -96.32091 1438 ft 138 kts 74°
2026-04-29 18:15 15.76388 -96.31133 1284 ft 137 kts 75°
2026-04-29 18:15 15.76662 -96.30195 1152 ft 136 kts 75°
2026-04-29 18:15 15.76931 -96.29258 956 ft 134 kts 78°
2026-04-29 18:16 15.77142 -96.28324 731 ft 132 kts 81°
2026-04-29 18:16 15.77319 -96.27399 503 ft 126 kts 83°
2026-04-29 18:16 15.77467 -96.26594 456 ft 102 kts 79°
2026-04-29 18:16 15.77569 -96.26050 450 ft 52 kts 78°
2026-04-29 18:17 15.77623 -96.25755 448 ft 24 kts 79°
2026-04-29 18:17 15.77597 -96.25665 447 ft 13 kts 197°
2026-04-29 18:17 15.77537 -96.25730 446 ft 13 kts 229°
2026-04-29 18:17 15.77475 -96.25802 447 ft 13 kts 228°
2026-04-29 18:18 15.77438 -96.25842 447 ft 7 kts 229°
2026-04-29 18:18 15.77401 -96.25890 448 ft 10 kts 231°
2026-04-29 18:18 15.77362 -96.25947 449 ft 10 kts 245°
2026-04-29 18:18 15.77342 -96.26018 450 ft 8 kts 246°
2026-04-29 18:19 15.77292 -96.26018 450 ft 7 kts 168°
2026-04-29 18:19 15.77244 -96.26018 450 ft 7 kts 240°
2026-04-29 18:19 15.77268 -96.26032 450 ft 3 kts 28°
2026-04-29 18:19 15.77283 -96.26031 450 ft 1 kts 355°
2026-04-29 18:20 15.77285 -96.26031 450 ft 0 kts 355°